Location: Kings Park
(40.8862°N, 73.2573°W)
Time: 06:07:25
(UTC+00:00)

USA 308 - Pass Details

Date: 29 October 2020
Orbit: 571 x 578 km, 54.0° (Epoch: 23 November)

Event Time Altitude Azimuth Distance (km) Brightness Sun altitude
Rises 23:33:02 0° 312° (NW) 2,785 7.1 -19.6°
Reaches altitude 10° 23:35:20 10° 316° (NW) 1,882 6.1 -20.0°
Maximum altitude 23:39:34 61° 37° (NE) 649 2.9 -20.8°
Enters shadow 23:39:53 59° 61° (ENE) 661 2.9 -20.9°
